EB2EMZ-15 Weather Reports


time (UTC)temp
F
wind
direction
speed
knots
gust
knots
rain 1hr
in
rain 24hr
in
rain mn
in
humidity
%
barometer
mb
20260503190025 61 338 0.0 0.0 0.00 0.00 0.00 81 990.4
20260503185524 61 338 0.0 0.0 0.00 0.00 0.00 81 990.4
20260503185026 61 338 0.0 0.0 0.00 0.00 0.00 81 990.3
20260503184524 61 338 0.0 0.0 0.00 0.00 0.00 81 990.2
20260503184028 61 338 0.0 0.0 0.00 0.00 0.00 81 990.5
20260503183524 61 338 0.0 0.0 0.00 0.00 0.00 81 990.4
20260503183028 61 338 0.0 0.0 0.00 0.00 0.00 81 990.4
20260503182524 61 338 0.0 0.0 0.00 0.00 0.00 80 990.4
20260503182027 62 338 0.0 0.0 0.00 0.00 0.00 80 990.2
20260503181524 62 163 0.0 0.0 0.00 0.00 0.00 80 990.3
20260503181027 62 54 0.0 0.0 0.00 0.00 0.00 80 990.2
20260503180524 62 90 0.0 0.0 0.00 0.00 0.00 80 989.9
20260503180024 62 90 0.0 0.0 0.00 0.00 0.00 80 989.8
20260503175524 62 90 0.0 0.0 0.00 0.00 0.00 80 989.8
20260503175026 62 90 0.0 0.0 0.00 0.00 0.00 79 989.8
20260503174525 62 90 0.0 0.0 0.00 0.00 0.00 79 989.8
20260503174027 62 90 0.0 0.0 0.00 0.00 0.00 79 989.7
20260503173524 62 90 0.0 0.0 0.00 0.00 0.00 79 989.8
20260503173026 62 158 0.0 0.0 0.00 0.00 0.00 77 989.6
20260503172523 62 338 0.0 0.0 0.00 0.00 0.00 77 989.4
20260503172026 63 0 0.0 0.0 0.00 0.00 0.00 76 989.4
20260503171524 64 0 0.0 0.0 0.00 0.00 0.00 75 989.5
20260503171026 65 0 0.9 4.3 0.00 0.00 0.00 74 989.6
20260503170523 65 132 0.0 0.0 0.00 0.00 0.00 72 989.3
20260503150524 70 171 0.0 4.3 0.00 0.00 0.00 63 988.6
20260503131027 69 180 0.0 0.0 0.00 0.00 0.00 64 990.7
20260503130524 69 180 0.0 0.0 0.00 0.00 0.00 65 991.0
20260503110523 70 143 0.0 0.0 0.00 0.00 0.00 61 992.1
20260503081523 81 112 0.0 0.0 0.00 0.00 0.00 54 992.1
20260503081026 82 112 0.0 0.0 0.00 0.00 0.00 54 992.0
20260503080523 81 112 0.0 0.0 0.00 0.00 0.00 56 991.9
20260503072523 71 338 0.0 0.0 0.00 0.00 0.00 74 991.9
20260503072025 69 338 0.0 0.0 0.00 0.00 0.00 75 992.0
20260503071523 68 338 0.0 0.0 0.00 0.00 0.00 76 992.1
20260503071025 68 338 0.0 0.0 0.00 0.00 0.00 74 992.2
20260503070523 69 338 0.0 0.0 0.00 0.00 0.00 74 992.2
20260503055025 55 338 0.0 0.0 0.00 0.00 0.00 90 992.1
20260503054522 55 338 0.0 0.0 0.00 0.00 0.00 90 992.1
20260503054025 55 338 0.0 0.0 0.00 0.00 0.00 90 992.1
20260503053523 55 338 0.0 0.0 0.00 0.00 0.00 90 992.0
20260503053026 55 338 0.0 0.0 0.00 0.00 0.00 90 991.9
20260503052522 55 338 0.0 0.0 0.00 0.00 0.00 90 991.9
20260503052025 55 338 0.0 0.0 0.00 0.00 0.00 90 992.0
20260503051522 55 338 0.0 0.0 0.00 0.00 0.00 90 991.7
20260503051025 55 338 0.0 0.0 0.00 0.00 0.00 90 991.9
20260503050523 55 338 0.0 0.0 0.00 0.00 0.00 90 991.9
20260503050022 55 338 0.0 0.0 0.00 0.00 0.00 90 992.0
20260503045029 55 338 0.0 0.0 0.00 0.00 0.00 90 992.0
20260503044522 55 338 0.0 0.0 0.00 0.00 0.00 90 991.8
20260503044025 55 338 0.0 0.0 0.00 0.00 0.00 90 991.8
20260503043523 55 338 0.0 0.0 0.00 0.00 0.00 90 991.9
20260503043024 55 338 0.0 0.0 0.00 0.00 0.00 90 991.9
20260503042523 55 338 0.0 0.0 0.00 0.00 0.00 90 992.0
20260503042025 55 338 0.0 0.0 0.00 0.00 0.00 90 991.9
20260503041522 55 338 0.0 0.0 0.00 0.00 0.00 90 991.8
20260503041025 55 338 0.0 0.0 0.00 0.00 0.00 90 992.0
20260503040522 55 338 0.0 0.0 0.00 0.00 0.00 90 991.9
20260503040022 55 338 0.0 0.0 0.00 0.00 0.00 90 991.9
20260503035522 55 338 0.0 0.0 0.00 0.00 0.00 90 991.9
20260503035025 55 338 0.0 0.0 0.00 0.00 0.00 90 991.9
20260503034523 55 338 0.0 0.0 0.00 0.00 0.00 89 991.9
20260503034025 55 68 0.0 0.0 0.00 0.00 0.00 89 992.0
20260503033523 55 68 0.0 0.0 0.00 0.00 0.00 89 992.0
20260503033025 55 68 0.0 0.0 0.00 0.00 0.00 89 991.9
20260503032522 55 68 0.0 0.0 0.00 0.00 0.00 89 992.0
20260503032025 55 68 0.0 0.0 0.00 0.00 0.00 89 992.0
20260503031522 55 68 0.0 0.0 0.00 0.00 0.00 89 992.0
20260503031025 55 68 0.0 0.0 0.00 0.00 0.00 89 992.1
20260503030522 55 68 0.0 0.0 0.00 0.00 0.00 89 992.2
20260503030022 55 68 0.0 0.0 0.00 0.00 0.00 89 992.2
20260503025523 55 90 0.0 0.0 0.00 0.00 0.00 89 992.2
20260503025025 56 104 0.0 0.0 0.00 0.00 0.00 89 992.1
20260503024522 56 0 0.0 0.0 0.00 0.00 0.00 89 992.1
20260503024025 56 0 0.0 0.0 0.00 0.00 0.00 89 992.1
20260503023522 56 0 0.0 0.0 0.00 0.00 0.00 89 992.1
20260503023025 56 45 0.0 0.0 0.00 0.00 0.00 89 992.1
20260503022522 56 90 0.0 0.0 0.00 0.00 0.00 89 992.3
20260503022025 56 90 0.0 0.0 0.00 0.00 0.00 89 992.3
20260503021523 56 102 0.0 0.0 0.00 0.00 0.00 88 992.5
20260503021025 56 112 0.0 0.0 0.00 0.00 0.00 88 992.5
20260503020523 56 112 0.0 0.0 0.00 0.00 0.00 88 992.6
20260503020022 56 22 0.0 0.0 0.00 0.00 0.00 88 992.5
20260503015522 56 69 0.0 0.0 0.00 0.00 0.00 88 992.5
20260503015025 56 68 0.0 0.0 0.00 0.00 0.00 88 992.7
20260503014522 56 112 0.0 0.0 0.00 0.00 0.00 88 992.7
20260503014025 56 90 0.0 0.0 0.00 0.00 0.00 88 992.6
20260503013523 57 68 0.0 0.0 0.00 0.00 0.00 88 992.7
20260503013025 57 112 0.0 0.0 0.00 0.00 0.00 88 992.7
20260503012522 57 112 0.0 0.0 0.00 0.00 0.00 88 992.7
20260503012025 57 90 0.0 0.0 0.00 0.00 0.00 88 992.8
20260503011523 57 90 0.0 0.0 0.00 0.00 0.00 88 992.8
20260503011025 57 90 0.0 0.0 0.00 0.00 0.00 88 993.0
20260503010522 57 107 0.0 0.0 0.00 0.00 0.00 88 993.0
20260503010022 57 112 0.0 0.0 0.00 0.00 0.00 88 993.0
20260503005522 57 112 0.0 0.0 0.00 0.00 0.00 88 993.0
20260503005024 57 112 0.0 0.0 0.00 0.00 0.00 88 993.0
20260503004522 57 45 0.0 0.0 0.00 0.00 0.00 88 993.0
20260503004025 57 45 0.0 0.0 0.00 0.00 0.00 88 993.0
20260503003522 57 45 0.0 0.0 0.00 0.00 0.00 88 993.0
20260503003024 57 45 0.0 0.0 0.00 0.00 0.00 88 992.9
20260503002522 58 45 0.0 0.0 0.00 0.00 0.00 88 993.1
20260503002025 58 45 0.0 0.0 0.00 0.00 0.00 88 993.0
20260503001522 58 45 0.0 0.0 0.00 0.00 0.00 88 993.0
20260503001026 58 45 0.0 0.0 0.00 0.00 0.00 88 993.0
20260503000522 58 45 0.0 0.0 0.00 0.00 0.00 88 993.2
20260503000021 58 45 0.0 0.0 0.00 0.00 0.00 88 993.2
20260502235523 58 45 0.0 0.0 0.00 0.00 0.00 88 993.2
20260502235027 58 45 0.0 0.0 0.00 0.00 0.00 88 993.2
20260502234522 58 45 0.0 0.0 0.00 0.00 0.00 87 993.2
20260502234025 58 112 0.0 0.0 0.00 0.00 0.00 87 993.2
20260502233523 58 112 0.0 0.0 0.00 0.00 0.00 87 993.3
20260502233025 59 112 0.0 0.0 0.00 0.00 0.00 87 993.3
20260502232521 59 112 0.0 0.0 0.00 0.00 0.00 87 993.3
20260502232024 59 112 0.0 0.0 0.00 0.00 0.00 87 993.3
20260502231522 59 112 0.0 0.0 0.00 0.00 0.00 87 993.2
20260502231026 59 112 0.0 0.0 0.00 0.00 0.00 87 993.2
20260502230522 59 112 0.0 0.0 0.00 0.00 0.00 87 993.3
20260502225522 59 112 0.0 0.0 0.00 0.00 0.00 87 993.3
20260502225025 59 112 0.0 0.0 0.00 0.00 0.00 87 993.5
20260502224521 59 112 0.0 0.0 0.00 0.00 0.00 87 993.3
20260502224026 59 112 0.0 0.0 0.00 0.00 0.00 87 993.4
20260502223522 59 112 0.0 0.0 0.00 0.00 0.00 87 993.3
20260502223024 59 112 0.0 0.0 0.00 0.00 0.00 87 993.3
20260502222523 59 112 0.0 0.0 0.00 0.00 0.00 87 993.3
20260502222025 59 112 0.0 0.0 0.00 0.00 0.00 87 993.3
20260502221522 58 112 0.0 0.0 0.00 0.00 0.00 87 993.2
20260502221025 59 112 0.0 0.0 0.00 0.00 0.00 87 993.3
20260502220523 59 112 0.0 0.0 0.00 0.00 0.00 87 993.3
20260502220022 59 112 0.0 0.0 0.00 0.00 0.00 87 993.3
20260502215522 59 115 0.0 0.0 0.00 0.00 0.00 87 993.2
20260502215025 59 135 0.0 0.0 0.00 0.00 0.00 87 993.1
20260502214522 59 135 0.0 0.0 0.00 0.00 0.00 87 993.2
20260502214025 59 135 0.0 0.0 0.00 0.00 0.00 87 993.1
20260502213522 59 135 0.0 0.0 0.00 0.00 0.00 87 993.1
20260502213025 59 135 0.0 0.0 0.00 0.00 0.00 87 993.3
20260502212522 59 135 0.0 0.0 0.00 0.00 0.00 87 993.3
20260502212024 59 135 0.0 0.0 0.00 0.00 0.00 87 993.2
20260502211521 59 112 0.0 0.0 0.00 0.00 0.00 87 993.1
20260502211024 59 112 0.0 0.0 0.00 0.00 0.00 87 993.1
20260502210522 59 42 0.0 0.0 0.00 0.00 0.00 87 993.2
20260502210022 59 94 0.0 0.0 0.00 0.00 0.00 87 993.1
20260502205521 59 112 0.0 0.0 0.00 0.00 0.00 86 993.1
20260502205031 60 112 0.0 0.0 0.00 0.00 0.00 86 993.1
20260502204521 60 68 0.0 0.0 0.00 0.00 0.00 86 993.1
20260502204024 60 68 0.0 0.0 0.00 0.00 0.00 86 992.9
20260502203522 60 68 0.0 0.0 0.00 0.00 0.00 85 993.0
20260502203024 60 68 0.0 0.0 0.00 0.00 0.00 85 993.1
20260502202522 60 70 0.0 0.0 0.00 0.00 0.00 85 993.0
20260502202024 61 135 0.0 0.0 0.00 0.00 0.00 85 992.9
20260502201521 61 135 0.0 0.0 0.00 0.00 0.00 85 992.9
20260502201024 61 158 0.0 0.0 0.00 0.00 0.00 85 992.9
20260502200522 61 158 0.0 0.0 0.00 0.00 0.00 85 992.8
20260502200022 61 158 0.0 0.0 0.00 0.00 0.00 85 992.8
20260502195521 61 158 0.0 0.0 0.00 0.00 0.00 85 992.7
20260502195024 61 158 0.0 0.0 0.00 0.00 0.00 85 992.8
20260502194521 62 158 0.0 0.0 0.00 0.00 0.00 85 992.7
20260502194025 62 158 0.0 0.0 0.00 0.00 0.00 84 992.6
20260502193521 62 158 0.0 0.0 0.00 0.00 0.00 84 992.7
20260502193024 62 158 0.0 0.0 0.00 0.00 0.00 84 992.6
20260502192522 62 158 0.0 0.0 0.00 0.00 0.00 84 992.5
20260502192024 63 158 0.0 0.0 0.00 0.00 0.00 84 992.3
20260502191521 63 158 0.0 0.0 0.00 0.00 0.00 84 992.4
20260502191023 63 158 0.0 0.0 0.00 0.00 0.00 84 992.4
20260502190521 63 158 0.0 0.0 0.00 0.00 0.00 83 992.5